Track DUMMY SAT 2/BREEZE-M now! DUMMY SAT 2/BREEZE-M is classified as:
1 40355U 14085A 25167.16054802 -.00000096 00000-0 00000-0 0 9998 2 40355 9.3816 64.2252 0365917 345.6604 13.2656 0.94060450 35779